| time (UTC) | temp C | wind direction | speed KPH | gust KPH | rain 1hr cm | rain 24hr cm | rain mn cm | humidity % | barometer mb |
| 20260504190508 | 10 | 288 | 22.5 | 35.4 | 0.00 | 0.08 | 0.00 | 46 | 1011.7 |
| 20260504190019 | 10 | 276 | 20.9 | 35.4 | 0.00 | 0.08 | 0.00 | 49 | 1011.7 |
| 20260504185503 | 10 | 298 | 24.1 | 45.1 | 0.00 | 0.08 | 0.00 | 49 | 1011.6 |
| 20260504185007 | 10 | 304 | 22.5 | 45.1 | 0.00 | 0.08 | 0.00 | 48 | 1011.7 |
| 20260504184532 | 10 | 306 | 22.5 | 38.6 | 0.00 | 0.08 | 0.00 | 48 | 1011.8 |
| 20260504184010 | 11 | 303 | 22.5 | 38.6 | 0.00 | 0.08 | 0.00 | 46 | 1011.7 |
| 20260504183508 | 11 | 315 | 16.1 | 35.4 | 0.00 | 0.08 | 0.00 | 47 | 1011.7 |
| 20260504183023 | 11 | 327 | 20.9 | 35.4 | 0.00 | 0.08 | 0.00 | 48 | 1011.6 |
| 20260504182512 | 11 | 305 | 20.9 | 33.8 | 0.00 | 0.08 | 0.00 | 48 | 1011.6 |
| 20260504182010 | 10 | 306 | 22.5 | 33.8 | 0.00 | 0.08 | 0.00 | 50 | 1011.6 |
| 20260504181506 | 10 | 348 | 19.3 | 38.6 | 0.00 | 0.08 | 0.00 | 49 | 1011.7 |
| 20260504181004 | 10 | 294 | 24.1 | 38.6 | 0.00 | 0.08 | 0.00 | 48 | 1011.7 |
| 20260504180506 | 10 | 325 | 24.1 | 38.6 | 0.00 | 0.08 | 0.00 | 48 | 1011.6 |
| 20260504180010 | 11 | 294 | 24.1 | 35.4 | 0.00 | 0.08 | 0.00 | 47 | 1011.7 |
| 20260504175504 | 11 | 360 | 24.1 | 33.8 | 0.00 | 0.08 | 0.00 | 48 | 1011.7 |
| 20260504175005 | 11 | 360 | 22.5 | 41.8 | 0.00 | 0.08 | 0.00 | 49 | 1011.5 |
| 20260504174517 | 11 | 309 | 20.9 | 41.8 | 0.00 | 0.08 | 0.00 | 50 | 1011.5 |
| 20260504174007 | 11 | 360 | 20.9 | 43.5 | 0.00 | 0.08 | 0.00 | 51 | 1011.6 |
| 20260504173506 | 10 | 311 | 24.1 | 46.7 | 0.00 | 0.08 | 0.00 | 49 | 1011.5 |
| 20260504173020 | 10 | 316 | 22.5 | 46.7 | 0.00 | 0.08 | 0.00 | 50 | 1011.6 |
| 20260504172507 | 11 | 312 | 27.4 | 46.7 | 0.00 | 0.08 | 0.00 | 48 | 1011.5 |
| 20260504172008 | 11 | 292 | 20.9 | 46.7 | 0.00 | 0.08 | 0.00 | 51 | 1011.5 |
| 20260504171522 | 11 | 331 | 20.9 | 33.8 | 0.00 | 0.08 | 0.00 | 50 | 1011.3 |
| 20260504171011 | 10 | 323 | 25.7 | 38.6 | 0.00 | 0.08 | 0.00 | 50 | 1011.5 |
| 20260504170507 | 10 | 309 | 25.7 | 38.6 | 0.00 | 0.08 | 0.00 | 48 | 1011.5 |
| 20260504151005 | 9 | 327 | 17.7 | 32.2 | 0.00 | 0.08 | 0.00 | 53 | 1011.4 |
| 20260504150511 | 9 | 326 | 16.1 | 27.4 | 0.00 | 0.08 | 0.00 | 53 | 1011.4 |
| 20260504141010 | 10 | 318 | 9.7 | 20.9 | 0.00 | 0.08 | 0.00 | 54 | 1011.2 |
| 20260504140506 | 10 | 327 | 12.9 | 22.5 | 0.00 | 0.08 | 0.00 | 53 | 1011.2 |
| 20260504130507 | 8 | 337 | 4.8 | 12.9 | 0.00 | 0.08 | 0.00 | 64 | 1010.3 |
| 20260504110508 | 8 | 288 | 3.2 | 14.5 | 0.00 | 0.08 | 0.00 | 59 | 1008.4 |
| 20260504100503 | 11 | 273 | 8.0 | 12.9 | 0.00 | 0.08 | 0.00 | 48 | 1005.8 |
| 20260504082006 | 11 | 271 | 6.4 | 14.5 | 0.00 | 0.08 | 0.00 | 47 | 1005.1 |
| 20260504081504 | 11 | 267 | 9.7 | 14.5 | 0.00 | 0.08 | 0.00 | 46 | 1005.1 |
| 20260504081007 | 11 | 269 | 9.7 | 14.5 | 0.00 | 0.08 | 0.00 | 47 | 1005.1 |
| 20260504080504 | 11 | 251 | 8.0 | 14.5 | 0.00 | 0.08 | 0.00 | 47 | 1005.1 |
| 20260504050504 | 12 | 282 | 11.3 | 14.5 | 0.00 | 0.08 | 0.08 | 52 | 1006.6 |
| 20260504050012 | 12 | 262 | 8.0 | 12.9 | 0.00 | 0.08 | 0.08 | 51 | 1006.6 |
| 20260504045503 | 12 | 256 | 8.0 | 12.9 | 0.00 | 0.08 | 0.08 | 52 | 1006.7 |
| 20260504045004 | 12 | 254 | 6.4 | 11.3 | 0.00 | 0.08 | 0.08 | 52 | 1006.8 |
| 20260504044514 | 12 | 267 | 4.8 | 12.9 | 0.00 | 0.08 | 0.08 | 52 | 1006.8 |
| 20260504044006 | 12 | 263 | 6.4 | 12.9 | 0.00 | 0.08 | 0.08 | 51 | 1006.8 |
| 20260504043508 | 12 | 244 | 6.4 | 11.3 | 0.00 | 0.08 | 0.08 | 53 | 1006.9 |
| 20260504043011 | 12 | 253 | 6.4 | 11.3 | 0.00 | 0.08 | 0.08 | 51 | 1006.9 |
| 20260504042506 | 13 | 256 | 6.4 | 14.5 | 0.00 | 0.08 | 0.08 | 47 | 1006.9 |
| 20260504042005 | 13 | 238 | 8.0 | 14.5 | 0.00 | 0.08 | 0.08 | 47 | 1007.0 |
| 20260504041512 | 13 | 265 | 6.4 | 14.5 | 0.00 | 0.08 | 0.08 | 49 | 1007.0 |
| 20260504041004 | 13 | 246 | 8.0 | 14.5 | 0.00 | 0.08 | 0.08 | 50 | 1007.1 |
| 20260504040507 | 12 | 360 | 4.8 | 12.9 | 0.00 | 0.08 | 0.08 | 53 | 1007.0 |
| 20260504040016 | 12 | 248 | 6.4 | 9.7 | 0.00 | 0.08 | 0.08 | 54 | 1007.0 |
| 20260504035504 | 12 | 259 | 4.8 | 9.7 | 0.00 | 0.08 | 0.08 | 51 | 1007.0 |
| 20260504035004 | 13 | 257 | 6.4 | 11.3 | 0.00 | 0.08 | 0.08 | 51 | 1006.9 |
| 20260504034519 | 13 | 254 | 6.4 | 14.5 | 0.00 | 0.08 | 0.08 | 53 | 1006.9 |
| 20260504034003 | 12 | 251 | 8.0 | 14.5 | 0.00 | 0.08 | 0.08 | 56 | 1006.9 |
| 20260504033504 | 11 | 242 | 4.8 | 9.7 | 0.00 | 0.08 | 0.08 | 63 | 1006.9 |
| 20260504033014 | 10 | 256 | 0.0 | 4.8 | 0.00 | 0.08 | 0.08 | 65 | 1006.9 |
| 20260504032506 | 11 | 252 | 3.2 | 4.8 | 0.00 | 0.08 | 0.08 | 63 | 1006.9 |
| 20260504032003 | 11 | 257 | 1.6 | 4.8 | 0.00 | 0.08 | 0.08 | 63 | 1006.8 |
| 20260504031517 | 11 | 252 | 3.2 | 3.2 | 0.00 | 0.08 | 0.08 | 64 | 1006.8 |
| 20260504031007 | 11 | 247 | 1.6 | 3.2 | 0.00 | 0.08 | 0.08 | 65 | 1006.7 |
| 20260504030508 | 11 | 242 | 0.0 | 3.2 | 0.00 | 0.08 | 0.08 | 65 | 1006.8 |
| 20260504030015 | 11 | 242 | 1.6 | 3.2 | 0.00 | 0.08 | 0.08 | 65 | 1006.7 |
| 20260504025507 | 11 | 238 | 1.6 | 3.2 | 0.00 | 0.08 | 0.08 | 62 | 1006.7 |
| 20260504025007 | 11 | 237 | 1.6 | 3.2 | 0.00 | 0.08 | 0.08 | 65 | 1006.7 |
| 20260504024519 | 11 | 235 | 0.0 | 3.2 | 0.00 | 0.08 | 0.08 | 64 | 1006.7 |
| 20260504024006 | 11 | 242 | 1.6 | 3.2 | 0.00 | 0.08 | 0.08 | 64 | 1006.6 |
| 20260504023506 | 11 | 242 | 0.0 | 3.2 | 0.00 | 0.08 | 0.08 | 68 | 1006.6 |
| 20260504023019 | 10 | 251 | 0.0 | 3.2 | 0.00 | 0.08 | 0.08 | 1006.6 | |
| 20260504022506 | 11 | 360 | 1.6 | 3.2 | 0.00 | 0.08 | 0.08 | 1006.6 | |
| 20260504022008 | 11 | 360 | 1.6 | 3.2 | 0.00 | 0.08 | 0.08 | 1006.6 | |
| 20260504021519 | 11 | 360 | 1.6 | 3.2 | 0.00 | 0.08 | 0.08 | 63 | 1006.5 |
| 20260504021007 | 12 | 253 | 1.6 | 3.2 | 0.00 | 0.08 | 0.08 | 63 | 1006.5 |
| 20260504020503 | 12 | 259 | 1.6 | 4.8 | 0.00 | 0.08 | 0.08 | 65 | 1006.6 |
| 20260504020019 | 12 | 275 | 1.6 | 4.8 | 0.00 | 0.08 | 0.08 | 64 | 1006.6 |
| 20260504015507 | 12 | 166 | 1.6 | 4.8 | 0.00 | 0.08 | 0.08 | 63 | 1006.6 |
| 20260504015010 | 13 | 146 | 0.0 | 3.2 | 0.00 | 0.08 | 0.08 | 63 | 1006.5 |
| 20260504014519 | 13 | 145 | 1.6 | 3.2 | 0.00 | 0.08 | 0.08 | 61 | 1006.6 |
| 20260504014008 | 14 | 145 | 0.0 | 3.2 | 0.00 | 0.08 | 0.08 | 61 | 1006.7 |
| 20260504013507 | 14 | 145 | 0.0 | 3.2 | 0.00 | 0.08 | 0.08 | 61 | 1006.8 |
| 20260504013032 | 15 | 145 | 1.6 | 3.2 | 0.00 | 0.08 | 0.08 | 58 | 1006.9 |
| 20260504012507 | 16 | 145 | 0.0 | 3.2 | 0.00 | 0.08 | 0.08 | 56 | 1006.9 |
| 20260504012011 | 16 | 145 | 0.0 | 3.2 | 0.00 | 0.08 | 0.08 | 55 | 1007.0 |
| 20260504011518 | 17 | 145 | 0.0 | 9.7 | 0.00 | 0.08 | 0.08 | 51 | 1007.1 |
| 20260504011012 | 17 | 145 | 1.6 | 9.7 | 0.00 | 0.08 | 0.08 | 49 | 1007.1 |
| 20260504010507 | 17 | 136 | 4.8 | 8.0 | 0.00 | 0.08 | 0.08 | 50 | 1007.2 |
| 20260504010023 | 17 | 133 | 4.8 | 9.7 | 0.00 | 0.08 | 0.08 | 50 | 1007.3 |
| 20260504005507 | 18 | 157 | 3.2 | 9.7 | 0.00 | 0.08 | 0.08 | 49 | 1007.3 |
| 20260504005008 | 18 | 140 | 3.2 | 6.4 | 0.00 | 0.08 | 0.08 | 48 | 1007.4 |
| 20260504004524 | 18 | 150 | 3.2 | 4.8 | 0.00 | 0.08 | 0.08 | 46 | 1007.4 |
| 20260504004007 | 18 | 131 | 1.6 | 4.8 | 0.00 | 0.08 | 0.08 | 45 | 1007.5 |
| 20260504003507 | 18 | 130 | 3.2 | 6.4 | 0.00 | 0.08 | 0.08 | 42 | 1007.5 |
| 20260504003036 | 18 | 130 | 1.6 | 6.4 | 0.00 | 0.08 | 0.08 | 42 | 1007.6 |
| 20260504002508 | 18 | 160 | 0.0 | 6.4 | 0.00 | 0.08 | 0.08 | 44 | 1007.7 |
| 20260504002007 | 18 | 160 | 1.6 | 8.0 | 0.00 | 0.08 | 0.08 | 43 | 1007.7 |
| 20260504001524 | 19 | 156 | 3.2 | 11.3 | 0.00 | 0.08 | 0.08 | 45 | 1007.8 |
| 20260504001007 | 19 | 215 | 4.8 | 11.3 | 0.00 | 0.08 | 0.08 | 43 | 1007.8 |
| 20260504000507 | 19 | 142 | 4.8 | 17.7 | 0.00 | 0.08 | 0.08 | 39 | 1008.0 |
| 20260504000023 | 19 | 101 | 3.2 | 17.7 | 0.00 | 0.08 | 0.08 | 42 | 1008.1 |
| 20260503235507 | 19 | 59 | 6.4 | 14.5 | 0.00 | 0.08 | 0.08 | 45 | 1008.0 |
| 20260503235008 | 19 | 82 | 4.8 | 14.5 | 0.00 | 0.08 | 0.08 | 42 | 1008.0 |
| 20260503234524 | 19 | 219 | 3.2 | 6.4 | 0.00 | 0.08 | 0.08 | 46 | 1008.2 |
| 20260503234007 | 19 | 74 | 0.0 | 4.8 | 0.00 | 0.08 | 0.08 | 44 | 1008.2 |
| 20260503233508 | 19 | 74 | 1.6 | 4.8 | 0.00 | 0.08 | 0.08 | 44 | 1008.3 |
| 20260503233029 | 20 | 188 | 1.6 | 6.4 | 0.00 | 0.08 | 0.08 | 41 | 1008.3 |
| 20260503232509 | 19 | 157 | 3.2 | 6.4 | 0.00 | 0.08 | 0.08 | 42 | 1008.5 |
| 20260503232011 | 19 | 87 | 1.6 | 4.8 | 0.00 | 0.08 | 0.08 | 40 | 1008.5 |
| 20260503231524 | 19 | 288 | 1.6 | 6.4 | 0.00 | 0.08 | 0.08 | 45 | 1008.6 |
| 20260503231008 | 19 | 243 | 1.6 | 9.7 | 0.00 | 0.08 | 0.08 | 40 | 1008.7 |
| 20260503230509 | 19 | 257 | 3.2 | 16.1 | 0.00 | 0.08 | 0.08 | 44 | 1008.8 |
| 20260503230026 | 18 | 178 | 1.6 | 16.1 | 0.00 | 0.08 | 0.08 | 44 | 1008.9 |
| 20260503225507 | 19 | 176 | 8.0 | 14.5 | 0.00 | 0.08 | 0.08 | 42 | 1009.0 |
| 20260503225014 | 18 | 206 | 8.0 | 14.5 | 0.00 | 0.08 | 0.08 | 46 | 1009.1 |
| 20260503224528 | 18 | 128 | 9.7 | 16.1 | 0.00 | 0.08 | 0.08 | 46 | 1009.3 |
| 20260503224010 | 18 | 188 | 8.0 | 16.1 | 0.00 | 0.08 | 0.08 | 46 | 1009.4 |
| 20260503223507 | 18 | 169 | 4.8 | 20.9 | 0.00 | 0.08 | 0.08 | 45 | 1009.6 |
| 20260503223023 | 18 | 184 | 9.7 | 20.9 | 0.00 | 0.08 | 0.08 | 44 | 1009.8 |
| 20260503222507 | 18 | 198 | 6.4 | 16.1 | 0.00 | 0.08 | 0.08 | 44 | 1010.0 |
| 20260503222007 | 18 | 213 | 9.7 | 16.1 | 0.00 | 0.08 | 0.08 | 44 | 1010.1 |
| 20260503221524 | 18 | 279 | 6.4 | 12.9 | 0.00 | 0.08 | 0.08 | 45 | 1010.2 |
| 20260503221012 | 18 | 261 | 6.4 | 16.1 | 0.00 | 0.08 | 0.08 | 42 | 1010.3 |
| 20260503220504 | 18 | 243 | 8.0 | 16.1 | 0.00 | 0.08 | 0.08 | 44 | 1010.5 |
| 20260503220017 | 18 | 288 | 11.3 | 14.5 | 0.00 | 0.08 | 0.08 | 51 | 1010.6 |
| 20260503215502 | 17 | 259 | 4.8 | 14.5 | 0.00 | 0.08 | 0.08 | 49 | 1010.6 |
| 20260503215003 | 17 | 265 | 8.0 | 14.5 | 0.00 | 0.08 | 0.08 | 49 | 1010.7 |
| 20260503214514 | 17 | 286 | 4.8 | 14.5 | 0.00 | 0.08 | 0.08 | 49 | 1010.8 |
| 20260503214003 | 18 | 194 | 6.4 | 14.5 | 0.00 | 0.08 | 0.08 | 49 | 1010.7 |
| 20260503213504 | 18 | 277 | 4.8 | 12.9 | 0.00 | 0.08 | 0.08 | 51 | 1010.9 |
| 20260503213020 | 17 | 294 | 1.6 | 12.9 | 0.00 | 0.08 | 0.08 | 51 | 1011.1 |
| 20260503212506 | 17 | 289 | 6.4 | 11.3 | 0.00 | 0.08 | 0.08 | 55 | 1011.1 |
| 20260503212003 | 17 | 249 | 3.2 | 6.4 | 0.00 | 0.08 | 0.08 | 58 | 1011.1 |
| 20260503211505 | 16 | 257 | 1.6 | 8.0 | 0.00 | 0.08 | 0.08 | 54 | 1011.1 |
| 20260503211003 | 16 | 229 | 3.2 | 8.0 | 0.03 | 0.08 | 0.08 | 58 | 1011.1 |
| 20260503210503 | 16 | 242 | 4.8 | 6.4 | 0.08 | 0.08 | 0.08 | 61 | 1011.3 |
| 20260503210008 | 15 | 267 | 1.6 | 8.0 | 0.08 | 0.08 | 0.08 | 69 | 1011.5 |
| 20260503205504 | 13 | 239 | 3.2 | 9.7 | 0.08 | 0.08 | 0.08 | 68 | 1011.5 |
| 20260503205004 | 13 | 187 | 4.8 | 12.9 | 0.08 | 0.08 | 0.08 | 68 | 1011.7 |
| 20260503204512 | 13 | 360 | 8.0 | 14.5 | 0.08 | 0.08 | 0.08 | 66 | 1012.1 |
| 20260503204003 | 13 | 360 | 8.0 | 17.7 | 0.08 | 0.08 | 0.08 | 67 | 1012.3 |
| 20260503203506 | 13 | 229 | 6.4 | 17.7 | 0.08 | 0.08 | 0.08 | 70 | 1012.3 |
| 20260503203019 | 12 | 228 | 9.7 | 17.7 | 0.08 | 0.08 | 0.08 | 71 | 1012.4 |
| 20260503202509 | 12 | 242 | 9.7 | 14.5 | 0.08 | 0.08 | 0.08 | 71 | 1012.4 |
| 20260503202010 | 13 | 250 | 6.4 | 16.1 | 0.08 | 0.08 | 0.08 | 64 | 1012.4 |
| 20260503201524 | 13 | 231 | 6.4 | 32.2 | 0.08 | 0.08 | 0.08 | 64 | 1012.3 |
| 20260503201003 | 15 | 266 | 17.7 | 32.2 | 0.05 | 0.05 | 0.05 | 57 | 1012.6 |
| 20260503200505 | 16 | 277 | 11.3 | 25.7 | 0.00 | 0.00 | 0.00 | 52 | 1012.2 |
| 20260503200005 | 17 | 333 | 19.3 | 25.7 | 0.00 | 0.00 | 0.00 | 45 | 1011.9 |
| 20260503195504 | 18 | 326 | 11.3 | 20.9 | 0.00 | 0.00 | 0.00 | 39 | 1011.7 |
| 20260503195003 | 18 | 352 | 9.7 | 20.9 | 0.00 | 0.00 | 0.00 | 37 | 1011.7 |
| 20260503194512 | 18 | 321 | 3.2 | 12.9 | 0.00 | 0.00 | 0.00 | 38 | 1011.6 |
| 20260503194003 | 18 | 311 | 6.4 | 14.5 | 0.00 | 0.00 | 0.00 | 40 | 1011.6 |
| 20260503193507 | 19 | 284 | 1.6 | 16.1 | 0.00 | 0.00 | 0.00 | 39 | 1011.7 |
| 20260503193017 | 20 | 298 | 6.4 | 16.1 | 0.00 | 0.00 | 0.00 | 35 | 1011.8 |
| 20260503192506 | 20 | 278 | 6.4 | 16.1 | 0.00 | 0.00 | 0.00 | 34 | 1011.8 |
| 20260503192008 | 20 | 300 | 6.4 | 16.1 | 0.00 | 0.00 | 0.00 | 39 | 1011.9 |
| 20260503191520 | 19 | 341 | 4.8 | 14.5 | 0.00 | 0.00 | 0.00 | 40 | 1012.0 |
| 20260503191010 | 18 | 289 | 1.6 | 9.7 | 0.00 | 0.00 | 0.00 | 36 | 1012.0 |